Location: Unspecified
(0.0000°N, 0.0000°E)
Time: 16:01:32
(UTC+00:00)

CZ-3B DEB - Visible Passes

Search period start: 19 October 2020 00:00
Search period end: 29 October 2020 00:00
Orbit: 1061 x 41506 km, 25.2° (Epoch: 14 October)

Date Brightness Start Highest point End Pass type
(mag) Time Alt. Az. Time Alt. Az. Time Alt. Az.
19 Oct ? 03:00:35 10° ESE 10:30:41 57° SE 11:55:44 10° E visible
20 Oct ? 01:29:38 68° E 01:29:38 68° E 13:30:52 10° ENE visible
21 Oct ? 02:56:03 60° W 03:03:53 79° SSW 15:02:47 10° ENE visible
22 Oct ? 04:22:30 22° W 04:58:37 65° SSW 16:33:08 10° NE visible
24 Oct ? 19:26:11 10° NW 19:28:29 11° NNW 19:30:24 10° N visible
26 Oct ? 04:50:59 10° ESE 07:26:19 22° ESE 08:41:10 10° E visible
26 Oct ? 22:51:23 10° E 22:51:23 10° E 22:51:38 10° E visible
27 Oct ? 03:28:52 10° ESE 09:05:34 46° ESE 10:35:04 10° E visible
28 Oct ? 00:17:47 41° E 00:17:47 41° E 12:13:13 10° ENE visible
